User: anonymous   Login
Location: Unspecified
(0.0000°N, 0.0000°E)
Time: 12:59:03
(UTC+00:00)
Language:

GOES 4 - Orbit

View from above orbital plane
View from above orbital plane
View from above satellite
View from above satellite

Ground track
Ground track

The orbit data is extracted from the following two-line orbital elements,

1 11964U 80074A   24260.88305212 -.00000316  00000-0  00000-0 0  9994
2 11964   9.3800 307.8762 0030583  97.0650  57.2808  0.99234075121106
Epoch (UTC): 16 September 2024 21:11:35
Eccentricity: 0.0030583
inclination: 9.3800°
perigee height: 35950 km
apogee height: 36209 km
right ascension of ascending node: 307.8762°
argument of perigee: 97.0650°
revolutions per day: 0.99234075
mean anomaly at epoch: 57.2808°
orbit number at epoch: 12110

The dashed part of the orbit path shows where the satellite is in the earth's shadow,  

DLR